Location: Newark
(30.0333°N, 31.2167°E)
Time: 16:45:23
(UTC+00:00)

Transit 2A Rocket - All Passes

Search period start: 21 January 2020 00:00
Search period end: 31 January 2020 00:00
Orbit: 593 x 910 km, 66.7° (Epoch: 20 January)

Date Brightness Start Highest point End Pass type
(mag) Time Alt. Az. Time Alt. Az. Time Alt. Az.
21 Jan - 03:32:51 10° SSW 03:37:16 86° ESE 03:41:34 10° NNE visible
21 Jan - 12:21:53 10° NNE 12:25:22 18° ENE 12:29:01 10° E daylight
21 Jan - 14:03:09 10° NW 14:07:59 45° WSW 14:13:15 10° S daylight
22 Jan - 02:50:43 10° S 02:54:50 39° ESE 02:58:49 10° NE visible
22 Jan - 04:35:09 10° W 04:37:27 14° NW 04:39:43 10° NNW daylight
22 Jan - 13:20:27 10° NNW 13:25:31 86° WSW 13:31:04 10° SSE daylight
23 Jan - 02:09:24 10° SSE 02:12:27 18° ESE 02:15:27 10° ENE visible
23 Jan - 03:51:01 10° WSW 03:54:43 27° WNW 03:58:24 10° N visible
23 Jan - 12:38:05 10° NNW 12:42:59 50° ENE 12:48:19 10° SE daylight
23 Jan - 14:22:11 10° WNW 14:25:14 16° WSW 14:28:24 10° SW daylight
24 Jan - 03:07:49 10° SW 03:12:08 56° WNW 03:16:21 10° NNE visible
24 Jan - 11:56:06 10° N 12:00:22 27° ENE 12:04:57 10° ESE daylight
24 Jan - 13:38:23 10° NW 13:42:51 30° WSW 13:47:37 10° SSW daylight
25 Jan - 02:25:17 10° SSW 02:29:38 66° ESE 02:33:53 10° NNE visible
25 Jan - 11:14:43 10° NNE 11:17:39 15° NE 11:20:42 10° E daylight
25 Jan - 12:55:23 10° NW 13:00:24 57° WSW 13:05:51 10° S daylight
26 Jan - 01:43:23 10° S 01:47:13 30° ESE 01:50:58 10° NE visible
26 Jan - 03:26:47 10° W 03:29:42 18° WNW 03:32:37 10° NNW visible
26 Jan - 12:12:48 10° NNW 12:17:54 77° ENE 12:23:28 10° SSE daylight
27 Jan - 01:02:33 10° SE 01:04:52 14° ESE 01:07:10 10° ENE night (unlit)
27 Jan - 02:43:04 10° SW 02:47:02 34° WNW 02:50:58 10° N visible
27 Jan - 11:30:34 10° N 11:35:20 41° ENE 11:40:31 10° SE daylight
27 Jan - 13:13:56 10° WNW 13:17:39 20° WSW 13:21:36 10° SSW daylight
28 Jan - 02:00:07 10° SSW 02:04:28 74° WNW 02:08:46 10° NNE visible
28 Jan - 10:48:43 10° N 10:52:42 23° ENE 10:56:55 10° ESE daylight
28 Jan - 12:30:30 10° NW 12:35:15 37° WSW 12:40:23 10° S daylight
29 Jan - 01:17:47 10° S 01:22:00 49° ESE 01:26:09 10° NE night (unlit)
29 Jan - 03:03:25 10° WNW 03:04:46 11° NW 03:06:07 10° NW visible
29 Jan - 10:07:47 10° NNE 10:09:56 12° NE 10:12:08 10° E daylight
29 Jan - 11:47:40 10° NNW 11:52:47 71° WSW 11:58:23 10° SSE daylight
30 Jan - 00:36:10 10° SSE 00:39:37 23° ESE 00:43:01 10° NE night (unlit)
30 Jan - 02:18:36 10° WSW 02:21:59 22° WNW 02:25:21 10° N night (unlit)
30 Jan - 11:05:12 10° NNW 11:10:17 62° ENE 11:15:49 10° SE daylight
30 Jan - 12:50:08 10° W 12:52:27 13° WSW 12:54:50 10° SW daylight
30 Jan - 23:56:22 10° ESE 23:57:18 11° ESE 23:58:14 10° E night (unlit)
